SL-14 R/B, 22652

Orbit data source: Space-Track

SL-14 R/B, 22652 is space debris in LEO originally from a launch on Tue, 11 May 1993 UTC launched from the Plesetsk Missile And Space Complex (PKMTR). Debris objects in space refer to the collection of defunct objects orbiting the Earth. Examples of debris include non-operational satellites, rocket bodies, and fragments generated from explosions, collisions, or faulty payload assembly.

Loading next visibility...
Identifier
22652, 1993-030G
Orbit
LEO
Country
Flag of CISCIS
Related business
Manufacturer
Yuzhnoe
Mission
Spacecraft
Bus & Motor
S5M, Unknown motor
Mass
1,600 kg wet, 1,600 kg dry
Launch date (UTC)
1993-05-11 (32 years ago)
Launch vehicle
Unknown
Launch site
Plesetsk Missile And Space Complex (PKMTR)
Object type
Payload
Rocket body
Debris
Shape & HBR
Cyl, 1.4 m
Radar Cross Section
7.351 m², Medium (>0.1 m² and < 1m²)

Expand to show TLE details & history
Last TLE update: 11 hours ago

TLE from 11 hours ago
0 SL-14 R/B
1 22652U 93030G   25258.18379037  .00000003  00000-0 -43742-4 0  9990
2 22652  82.5883 139.7490 0006991 197.7081 336.6435 12.63192348491311
Epoch: 2025-09-15T04:24Z
TLE epoch observation values (Epoch: 2025-09-15T04:24:39.487Z)
Latitude
5.55609°
Longitude
-101.5291°
Altitude
1,406.981 km
Speed
7.159 km/s
True Right ascension
21h 16m 06s
True Declination
5° 31' 33"
Sunlit
Object was in full shadow at epoch
Visualization orbit readout
Latitude
Unknown
Longitude
Unknown
Altitude
Unknown
Speed
Unknown
Apparent Right ascension
Unknown
Apparent Declination
Unknown
Sunlit
N/A
Visualization observer readout
Local Sidereal Time
08:02:45
Azimuth
Unknown
Elevation
Unknown
Doppler factor
Unknown
Orbital elements
Apogee altitude
1,412.557 km
Perigee altitude
1,401.672 km
Semi-major axis
7,785.252 km
Eccentricity
0.0007
Inclination
82.5883°
RAAN
139.749°
Arg. of periapsis
197.7081°
True anomaly
336.61171°
Mean anomaly
336.6435°
Eccentric anomaly
336.62761°
Mean motion
3.15962 °/min
Orbital period
113.94 mins
BSTAR
-0.000043742
Loading maneuver chart data...
Computing Atmospheric mass density...
Loading historical data...
Loading historical data...
Loading historical data...
Loading historical data...
Loading historical data...
Loading historical data...
Loading historical data...

Documentation

Showing up to 5 results
|